Regional Weather Roundup
Issued by NWS

Home | Current Version | Previous Version | Graphics & Text | Print | Product List | Glossary On
Versions: 1 2 3 4 5 6 7 8 9 10 11 12 13 14 15 16 17 18 19 20 21 22 23 24 25 26 27 28 29 30 31 32 33 34 35 36 37 38 39 40 41 42 43 44 45 46 47 48 49 50
000
ASUS44 KMEG 241700
RWRTN
TENNESSEE HOURLY STATE WEATHER ROUNDUP
NATIONAL WEATHER SERVICE MEMPHIS TN
1200 PM CDT TUE MAY 24 2016

TNZ002-004-019-021-049-052-054-088>092-241800-
WEST TENNESSEE

CITY           SKY/WX    TMP DP  RH WIND       PRES   REMARKS
MEMPHIS INTL   MOSUNNY   85  63  47 S8G18     30.08R
NWS MEMPHIS      N/A     84 N/A N/A MISG        N/A
JACKSON        SUNNY     84  60  44 SW13      30.10R
DYERSBURG      MOSUNNY   84  59  42 SW9       30.08S
UNION CITY     MOSUNNY   82  57  42 SW8       30.08R
PARIS          SUNNY     81  59  47 S7        30.10S
LEXINGTON      SUNNY     82  55  39 S8        30.10S
$$

TNZ008-025-027-028-033-062-065-066-241800-
NORTH MIDDLE TENNESSEE

CITY           SKY/WX    TMP DP  RH WIND       PRES   REMARKS
NASHVILLE      MOSUNNY   85  51  31 S9        30.13S
CLARKSVILLE    CLOUDY    78  58  49 SW8       30.11S
COOKEVILLE     SUNNY     82  54  36 NW3       30.15S
CROSSVILLE     SUNNY     76  46  34 VRB6      30.19S
$$

TNZ061-075-076-078-094-096-097-241800-
SOUTH MIDDLE TENNESSEE

CITY           SKY/WX    TMP DP  RH WIND       PRES   REMARKS
TULLAHOMA      SUNNY     81  52  36 SW8       30.16S
WINCHESTER     MOSUNNY   81  55  41 VRB5      30.15F
MCMINNVILLE    SUNNY     81  54  39 VRB3      30.15S
COLUMBIA       SUNNY     81  57  44 SW8       30.12S
SHELBYVILLE    SUNNY     84  55  37 VRB7      30.15S
$$

TNZ017-018-042-046-047-241800-
NORTHEAST TENNESSEE

CITY           SKY/WX    TMP DP  RH WIND       PRES   REMARKS
TRI CITIES     MOSUNNY   74  51  44 VRB3      30.19S
$$

TNZ012-013-036-069-073-074-241800-
CENTRAL EAST TENNESSEE

CITY           SKY/WX    TMP DP  RH WIND       PRES   REMARKS
KNOXVILLE      PTSUNNY   77  52  41 CALM      30.16F
GATLINBURG     SUNNY     79  52  38 SW5       30.16F
$$

TNZ083-085-099-241800-
SOUTHEAST TENNESSEE

CITY           SKY/WX    TMP DP  RH WIND       PRES   REMARKS
CHATTANOOGA    MOSUNNY   81  52  36 W5        30.16F
$$

SKY/WX REPORTED AS FAIR MEANS FEW OR NO CLOUDS BELOW
12 THOUSAND FEET.




USA.gov is the U.S. government's official web portal to all federal, state and local government web resources and services.